Weather History for McConnell AFB, KS

Change the Weather History Date:

Friday, November 9, 2012

  Actual Average Record
Temperature  
Mean Temperature 68 °F -  
Max Temperature 78 °F 56 °F 78 °F (2006)
Min Temperature 58 °F 37 °F 28 °F (2000)
Cooling Degree Days 3    
Growing Degree Days 18 (Base 50)    
Moisture  
Dew Point 56 °F    
Average Humidity 64    
Maximum Humidity 87    
Minimum Humidity 47    
Precipitation  
Precipitation 0.00 in - - ()
Sea Level Pressure  
Sea Level Pressure 29.75 in    
Wind  
Wind Speed 17 mph (SSE)    
Max Wind Speed 30 mph    
Max Gust Speed 38 mph    
Visibility 10 miles    
Events      
Averages and records for this station are not official NWS values.
T = Trace of Precipitation, MM = Missing Value Source: NWS Daily Summary

Daily Weather History Graph

Daily Weather History Graph

Search for Another Location

Airport:

Trip Planner

Search our weather history database for the weather conditions in past years. The results will help you decide how hot, cold, wet, or windy it might be!

Date:

Astronomy

Nov. 09, 2012 Rise Set
Actual Time 7:03 AM CST 5:22 PM CST
Civil Twilight 6:35 AM CST 5:49 PM CST
Nautical Twilight 6:04 AM CST 6:21 PM CST
Astronomical Twilight 5:33 AM CST 6:52 PM CST
Moon 2:08 AM CST (11/9) 2:31 PM CST (11/9)
Length of Visible Light 11h 14m
Length of Day
10h 19m
Waning Crescent, 23% of the Moon is Illuminated
Nov 9
Waning Crescent
Nov 13
New
Nov 20
First Quarter
Nov 28
Full
Dec 6
Last Quarter

Hourly Weather History & Observations

Time (CST) Temp. Dew Point Humidity Pressure Visibility Wind Dir Wind Speed Gust Speed Precip Events Conditions
12:55 AM 61.2 °F 53.2 °F 75% 29.81 in 10.0 mi SSE 10.4 mph - N/A   Clear
1:55 AM 59.5 °F 53.6 °F 81% 29.80 in 10.0 mi SSE 8.1 mph - N/A   Clear
3:55 AM 58.1 °F 54.3 °F 87% 29.78 in 10.0 mi SSE 9.2 mph - N/A   Clear
4:55 AM 59.7 °F 54.0 °F 81% 29.78 in 10.0 mi SSE 12.7 mph - N/A   Clear
5:55 AM 60.1 °F 52.9 °F 77% 29.78 in 10.0 mi SSE 12.7 mph - N/A   Clear
6:55 AM 61.7 °F 53.1 °F 73% 29.78 in 10.0 mi South 17.3 mph - N/A   Scattered Clouds
7:55 AM 63.0 °F 53.4 °F 71% 29.80 in 10.0 mi South 19.6 mph - N/A   Clear
8:55 AM 64.8 °F 52.9 °F 65% 29.81 in 10.0 mi South 20.7 mph 31.1 mph N/A   Scattered Clouds
9:55 AM 67.3 °F 54.9 °F 64% 29.81 in 10.0 mi South 17.3 mph - N/A   Partly Cloudy
10:55 AM 72.7 °F 56.5 °F 57% 29.79 in 10.0 mi South 24.2 mph 32.2 mph N/A   Clear
11:55 AM 74.7 °F 57.4 °F 55% 29.76 in 10.0 mi South 27.6 mph 34.5 mph N/A   Clear
12:55 PM 77.5 °F 57.2 °F 49% 29.73 in 10.0 mi SSE 26.5 mph 31.1 mph N/A   Clear
1:55 PM 77.9 °F 57.0 °F 48% 29.71 in 10.0 mi South 24.2 mph 34.5 mph N/A   Clear
2:55 PM 78.4 °F 56.7 °F 47% 29.68 in 10.0 mi SSE 26.5 mph 33.4 mph N/A   Clear
3:55 PM 77.9 °F 55.9 °F 47% 29.69 in 10.0 mi South 29.9 mph 38.0 mph N/A   Clear
4:55 PM 75.9 °F 56.8 °F 51% 29.69 in 10.0 mi South 28.8 mph 33.4 mph N/A   Clear
5:55 PM 73.8 °F 57.0 °F 56% 29.70 in 10.0 mi South 24.2 mph - N/A   Clear
6:55 PM 72.5 °F 58.1 °F 60% 29.71 in 10.0 mi South 20.7 mph 31.1 mph N/A   Clear
7:55 PM 71.6 °F 59.0 °F 64% 29.72 in 10.0 mi SSE 21.9 mph 31.1 mph N/A   Clear
8:55 PM 70.5 °F 59.4 °F 68% 29.72 in 10.0 mi SSE 24.2 mph 32.2 mph N/A   Clear
9:55 PM 69.8 °F 57.7 °F 65% 29.72 in 10.0 mi SSE 26.5 mph 33.4 mph N/A   Clear
10:55 PM 68.5 °F 57.0 °F 67% 29.72 in 10.0 mi South 20.7 mph 31.1 mph N/A   Clear
11:55 PM 68.5 °F 55.8 °F 64% 29.72 in 10.0 mi South 24.2 mph 35.7 mph N/A   Clear